• In Moldova, Republic
  • List of Countries
  • For 7 days
  • Water Temperature
  • Satellite Maps
  • Weather Map
  • Weather Widgets
  • user-avatar
    Login

    Hourly Weather Mayrhofen

    Today, 31 March, Friday

    Time Temperature Precipitation Wind Pressure Humidity
    00:00 +1°C° 0 mm 2 mps 620 mmHg 89%
    01:00 +1°C° 0 mm 2 mps 620 mmHg 89%
    02:00 +1°C° 0 mm 2 mps 620 mmHg 90%
    03:00 -1°C° 0 mm 2 mps 620 mmHg 90%
    04:00 -1°C° 0 mm 2 mps 619 mmHg 91%
    05:00 +1°C° 0 mm 2 mps 620 mmHg 91%
    06:00 +1°C° 0 mm 2 mps 620 mmHg 90%
    07:00 +2°C° 0 mm 2 mps 620 mmHg 90%
    08:00 +4°C° 0 mm 2 mps 620 mmHg 84%
    09:00 +6°C° 0 mm 2 mps 621 mmHg 77%
    10:00 +9°C° 0 mm 2 mps 621 mmHg 71%
    11:00 +10°C° 0 mm 2 mps 621 mmHg 67%
    12:00 +12°C° 0 mm 2 mps 621 mmHg 63%
    13:00 +13°C° 0 mm 2 mps 621 mmHg 58%
    14:00 +12°C° 0 mm 2 mps 621 mmHg 60%
    15:00 +12°C° 0 mm 2 mps 620 mmHg 62%
    16:00 +12°C° 0 mm 2 mps 620 mmHg 63%
    17:00 +9°C° 0.1 mm 1 mps 619 mmHg 74%
    18:00 +6°C° 0.1 mm 1 mps 617 mmHg 84%
    19:00 +4°C° 0.1 mm 1 mps 616 mmHg 94%
    20:00 +4°C° 0 mm 1 mps 616 mmHg 94%
    21:00 +3°C° 0 mm 2 mps 616 mmHg 94%
    22:00 +2°C° 0 mm 2 mps 616 mmHg 94%
    23:00 +2°C° 0 mm 2 mps 616 mmHg 94%

    Tomorrow, 1 April, Saturday

    Time Temperature Precipitation Wind Pressure Humidity
    00:00 +2°C° 0 mm 2 mps 616 mmHg 94%
    01:00 +2°C° 0 mm 2 mps 616 mmHg 94%
    02:00 +1°C° 0 mm 2 mps 615 mmHg 94%
    03:00 +1°C° 0 mm 2 mps 615 mmHg 94%
    04:00 +1°C° 0 mm 2 mps 614 mmHg 94%
    05:00 +1°C° 0 mm 2 mps 614 mmHg 93%
    06:00 +1°C° 0 mm 2 mps 614 mmHg 92%
    07:00 +2°C° 0 mm 2 mps 614 mmHg 91%
    08:00 +4°C° 0 mm 2 mps 615 mmHg 82%
    09:00 +6°C° 0 mm 2 mps 616 mmHg 74%
    10:00 +8°C° 0 mm 2 mps 616 mmHg 65%
    11:00 +8°C° 0 mm 2 mps 616 mmHg 62%
    12:00 +9°C° 0 mm 2 mps 616 mmHg 58%
    13:00 +10°C° 0 mm 2 mps 616 mmHg 54%
    14:00 +9°C° 0.3 mm 2 mps 616 mmHg 58%
    15:00 +9°C° 0.3 mm 2 mps 616 mmHg 62%
    16:00 +8°C° 0.3 mm 2 mps 615 mmHg 67%
    17:00 +6°C° 0.4 mm 2 mps 615 mmHg 76%
    18:00 +5°C° 0.4 mm 1 mps 614 mmHg 85%
    19:00 +3°C° 0.4 mm 1 mps 614 mmHg 94%
    20:00 +3°C° 0.3 mm 1 mps 614 mmHg 94%
    21:00 +3°C° 0.3 mm 1 mps 614 mmHg 94%
    22:00 +2°C° 0.3 mm 1 mps 615 mmHg 95%
    23:00 +2°C° 0 mm 1 mps 615 mmHg 95%

    Day after tomorrow, 2 April, Sunday

    Time Temperature Precipitation Wind Pressure Humidity
    00:00 +2°C° 0 mm 1 mps 615 mmHg 96%
    01:00 +1°C° 0 mm 1 mps 614 mmHg 96%
    02:00 +1°C° 0 mm 1 mps 614 mmHg 96%
    03:00 +1°C° 0 mm 1 mps 614 mmHg 95%
    04:00 +1°C° 0 mm 1 mps 614 mmHg 95%
    05:00 +1°C° 0 mm 1 mps 615 mmHg 91%
    06:00 +2°C° 0 mm 1 mps 615 mmHg 88%
    07:00 +2°C° 0 mm 1 mps 616 mmHg 84%
    08:00 +4°C° 0 mm 1 mps 616 mmHg 76%
    09:00 +6°C° 0 mm 1 mps 617 mmHg 67%
    10:00 +7°C° 0 mm 1 mps 618 mmHg 59%
    11:00 +8°C° 0 mm 1 mps 618 mmHg 58%
    12:00 +9°C° 0 mm 1 mps 618 mmHg 57%
    13:00 +9°C° 0 mm 1 mps 619 mmHg 56%
    14:00 +9°C° 0.1 mm 1 mps 618 mmHg 59%
    15:00 +8°C° 0.1 mm 1 mps 618 mmHg 63%
    16:00 +8°C° 0.1 mm 1 mps 618 mmHg 66%
    17:00 +6°C° 0.1 mm 1 mps 618 mmHg 75%
    18:00 +5°C° 0.1 mm 1 mps 617 mmHg 84%
    19:00 +2°C° 0.1 mm 0 mps 617 mmHg 93%
    20:00 +2°C° 0 mm 0 mps 617 mmHg 94%
    21:00 +2°C° 0 mm 0 mps 618 mmHg 95%
    22:00 +2°C° 0 mm 0 mps 618 mmHg 96%
    23:00 +2°C° 0 mm 0 mps 618 mmHg 96%

    3 April, Monday

    Time Temperature Precipitation Wind Pressure Humidity
    00:00 +2°C° 0 mm 1 mps 618 mmHg 96%
    01:00 +2°C° 0 mm 1 mps 618 mmHg 96%
    02:00 +2°C° 0.1 mm 1 mps 618 mmHg 96%
    03:00 +2°C° 0.1 mm 1 mps 618 mmHg 96%
    04:00 +2°C° 0.1 mm 1 mps 618 mmHg 96%
    05:00 +2°C° 0.1 mm 1 mps 618 mmHg 95%
    06:00 +3°C° 0.1 mm 1 mps 618 mmHg 94%
    07:00 +3°C° 0.1 mm 1 mps 619 mmHg 92%
    08:00 +4°C° 0.1 mm 1 mps 619 mmHg 86%
    09:00 +5°C° 0.1 mm 1 mps 620 mmHg 80%
    10:00 +6°C° 0.1 mm 1 mps 620 mmHg 74%
    11:00 +6°C° 0.2 mm 2 mps 620 mmHg 73%
    12:00 +6°C° 0.2 mm 2 mps 620 mmHg 72%
    13:00 +7°C° 0.2 mm 2 mps 620 mmHg 71%
    14:00 +7°C° 0.2 mm 2 mps 620 mmHg 73%
    15:00 +6°C° 0.2 mm 2 mps 619 mmHg 76%
    16:00 +6°C° 0.2 mm 2 mps 619 mmHg 78%
    17:00 +5°C° 0.2 mm 2 mps 619 mmHg 83%
    18:00 +4°C° 0.2 mm 2 mps 619 mmHg 89%
    19:00 +3°C° 0.2 mm 1 mps 618 mmHg 94%
    20:00 +3°C° 0.3 mm 1 mps 618 mmHg 94%
    21:00 +3°C° 0.3 mm 1 mps 619 mmHg 95%
    22:00 +2°C° 0.3 mm 1 mps 619 mmHg 96%
    23:00 +2°C° 0.2 mm 1 mps 619 mmHg 96%

    4 April, Tuesday

    Time Temperature Precipitation Wind Pressure Humidity
    00:00 +2°C° 0.2 mm 1 mps 618 mmHg 96%
    01:00 +2°C° 0.2 mm 1 mps 618 mmHg 96%
    02:00 +2°C° 0.1 mm 1 mps 618 mmHg 96%
    03:00 +1°C° 0.1 mm 1 mps 618 mmHg 96%
    04:00 -1°C° 0.1 mm 2 mps 618 mmHg 96%
    05:00 -1°C° 0.1 mm 2 mps 618 mmHg 94%
    06:00 -1°C° 0.1 mm 2 mps 618 mmHg 92%
    07:00 -1°C° 0.1 mm 2 mps 618 mmHg 90%
    08:00 +1°C° 0 mm 2 mps 618 mmHg 83%
    09:00 +2°C° 0 mm 2 mps 619 mmHg 76%
    10:00 +3°C° 0 mm 2 mps 619 mmHg 69%
    11:00 +4°C° 0.1 mm 2 mps 619 mmHg 66%
    12:00 +4°C° 0.1 mm 2 mps 619 mmHg 64%
    13:00 +5°C° 0.1 mm 2 mps 619 mmHg 61%
    14:00 +5°C° 0.1 mm 2 mps 619 mmHg 63%
    15:00 +4°C° 0.1 mm 2 mps 619 mmHg 64%
    16:00 +4°C° 0.1 mm 2 mps 619 mmHg 66%
    17:00 +3°C° 0.1 mm 2 mps 619 mmHg 73%
    18:00 +1°C° 0.1 mm 2 mps 618 mmHg 81%
    19:00 -1°C° 0.1 mm 2 mps 618 mmHg 89%
    20:00 -1°C° 0.1 mm 2 mps 618 mmHg 90%
    21:00 -1°C° 0.1 mm 2 mps 619 mmHg 90%
    22:00 -1°C° 0.1 mm 2 mps 619 mmHg 91%
    23:00 -2°C° 0.1 mm 2 mps 619 mmHg 91%

    5 April, Wednesday

    Time Temperature Precipitation Wind Pressure Humidity
    00:00 -2°C° 0.1 mm 2 mps 619 mmHg 91%
    01:00 -2°C° 0.1 mm 2 mps 619 mmHg 91%
    02:00 -2°C° 0 mm 2 mps 619 mmHg 92%
    03:00 -3°C° 0 mm 2 mps 618 mmHg 92%
    04:00 -3°C° 0 mm 2 mps 618 mmHg 92%
    05:00 -3°C° 0.1 mm 2 mps 618 mmHg 90%
    06:00 -3°C° 0.1 mm 2 mps 619 mmHg 87%
    07:00 -2°C° 0.1 mm 2 mps 619 mmHg 85%
    08:00 -1°C° 0.1 mm 2 mps 619 mmHg 78%
    09:00 +1°C° 0.1 mm 2 mps 620 mmHg 70%
    10:00 +2°C° 0.1 mm 2 mps 620 mmHg 63%
    11:00 +3°C° 0.1 mm 2 mps 620 mmHg 61%
    12:00 +4°C° 0.1 mm 2 mps 620 mmHg 60%
    13:00 +4°C° 0.1 mm 2 mps 620 mmHg 59%
    14:00 +4°C° 0.1 mm 2 mps 620 mmHg 62%
    15:00 +4°C° 0.1 mm 2 mps 619 mmHg 65%
    16:00 +4°C° 0.1 mm 2 mps 619 mmHg 68%
    17:00 +3°C° 0.3 mm 2 mps 619 mmHg 75%
    18:00 +1°C° 0.3 mm 2 mps 618 mmHg 82%
    19:00 -1°C° 0.3 mm 2 mps 618 mmHg 90%
    20:00 -1°C° 1 mm 2 mps 618 mmHg 90%
    21:00 -1°C° 1 mm 2 mps 618 mmHg 91%
    22:00 -1°C° 1 mm 2 mps 619 mmHg 92%
    23:00 -1°C° 0.8 mm 2 mps 618 mmHg 92%
    Show more